Flag for Colombia Weather past 2 weeks in Cartagena, Colombia

Now
79 °F

Passing clouds.


Feels Like: 82 °F
Forecast: 75 / 89 °F
Wind: 7 mph from North

Location: Cartagena / Rafael Nunez

Current Time: Jan 26, 2015 at 6:02:43 AM

Latest Report: Jan 26, 2015 at 3:00 AM


Visibility: N/A

Pressure: 29.72 "Hg

Humidity: 84%

Dew point: 73 °F

Location of CartagenaLocation

Historic Weather in Cartagena — Graph

°F

Cartagena temperature yesterday

Maximum temperature yesterday: 88 °F (at 10:00 AM)
Minimum temperature yesterday: 77 °F (at 7:00 AM)
Average temperature yesterday: 81 °F

Past Weeks' High & Low Weather Summary

 TemperatureHumidityPressure
High88 °F (Jan 11, 10:00 AM)100% (Jan 14, 9:00 PM)29.93 "Hg (Jan 14, 9:00 PM)
Low75 °F (Jan 11, 3:00 AM)62% (Jan 11, 4:00 PM)29.72 "Hg (Jan 26, 3:00 AM)
Average81 °F82%29.82 "Hg
* Reported Jan 11 3:00 AM — Jan 26 3:00 AM, Cartagena, Weather by CustomWeather, © 2014

Note: Actual official high and low records may vary slightly from our data, if they occured in-between our weather recording intervals... More about our weather records

Advertising

Cartagena weather history for previous 24 hours

 ConditionsComfort  
Time TempWeatherWind HumidityBarometerVisibility
3:00 AM
Jan 26
79 °FPassing clouds.7 mph84%29.72 "HgN/A
2:00 AM79 °FPassing clouds.7 mph84%29.74 "HgN/A
1:00 AM79 °FPassing clouds.12 mph84%29.76 "HgN/A
12:00 AM79 °FPassing clouds.13 mph84%29.78 "HgN/A
11:00 PM
Jan 25
79 °FPassing clouds.10 mph84%29.79 "HgN/A
10:00 PM79 °FPassing clouds.12 mph84%29.80 "HgN/A
7:00 PM79 °FWarm.10 mph84%29.75 "HgN/A
6:00 PM81 °FPartly sunny.13 mph79%29.76 "HgN/A
5:00 PM84 °FScattered clouds.12 mph70%29.74 "HgN/A
4:00 PM84 °FScattered clouds.23 mph70%29.74 "HgN/A
3:00 PM84 °FPassing clouds.18 mph74%29.74 "HgN/A
2:00 PM84 °FPassing clouds.21 mph70%29.76 "HgN/A
12:00 PM88 °FScattered clouds.9 mph70%29.81 "HgN/A
11:00 AM88 °FScattered clouds.5 mph66%29.84 "HgN/A
10:00 AM88 °FSunny.5 mph62%29.84 "Hg10 mi
9:00 AM84 °FSunny.5 mph70%29.84 "Hg10 mi
8:00 AM81 °FSunny.5 mph79%29.82 "Hg10 mi
7:00 AM77 °FSunny.No wind89%29.80 "Hg10 mi
6:00 AM79 °FClear.5 mph84%29.78 "Hg10 mi
Weather by CustomWeather, © 2014

See weather overviewHow to use our weather pages